Tracking 29487 objects as of 11-Sep-2024
HD Live streaming from Space Station
objects crossing your sky now

METEOR 2-8 DEB

Track METEOR 2-8 DEB now!
10-day predictions


NORAD ID: 36343
Int'l Code: 1982-025AD
Perigee: 830.3 km
Apogee: 848.7 km
Inclination: 82.5 °
Period: 101.6 minutes
Semi major axis: 7210 km
RCS: 0.0095 m2 (small)
Launch date: March 25, 1982
Source: Commonwealth of Independent States (former USSR) (CIS)
Launch site: PLESETSK MISSILE AND SPACE COMPLEX (PKMTR)

Note: This is SATELLITE DEBRIS
Your satellite tracking list
Your tracking list is empty




NASA's NSSDC Master Catalog

Two Line Element Set (TLE):
1 36343U 82025AD  24253.10410249  .00017726  00000-0  86416-2 0  9993
2 36343  82.5129  29.3267 0012792  19.0348 341.1306 14.17926988565192
Source of the keplerian elements: AFSPC